TimeEST,TemperatureF,Dew PointF,Humidity,Sea Level PressureIn,VisibilityMPH,Wind Direction,Wind SpeedMPH,Gust SpeedMPH,PrecipitationIn,Events,Conditions,WindDirDegrees,DateUTC
12:54 AM,57.0,42.1,57,30.17,10.0,SSW,11.5,-,N/A,,Overcast,210,2011-11-07 05:54:00
1:54 AM,57.0,42.1,57,30.17,10.0,SSW,11.5,-,N/A,,Overcast,210,2011-11-07 06:54:00
2:54 AM,55.9,42.1,60,30.18,10.0,SSW,6.9,-,N/A,,Overcast,200,2011-11-07 07:54:00
3:54 AM,57.0,42.1,57,30.17,10.0,SSW,9.2,-,N/A,,Overcast,200,2011-11-07 08:54:00
4:54 AM,55.9,42.1,60,30.18,10.0,SSW,8.1,-,N/A,,Overcast,210,2011-11-07 09:54:00
5:54 AM,55.4,42.8,63,30.20,10.0,SSW,8.1,-,N/A,,Overcast,210,2011-11-07 10:54:00
6:54 AM,55.4,44.6,67,30.21,10.0,SSW,9.2,-,N/A,,Overcast,200,2011-11-07 11:54:00
7:54 AM,53.6,46.4,77,30.22,10.0,SSW,8.1,-,N/A,,Overcast,200,2011-11-07 12:54:00
8:01 AM,53.6,46.4,77,30.21,10.0,South,11.5,-,N/A,,Overcast,190,2011-11-07 13:01:00
8:49 AM,53.6,48.2,82,30.23,10.0,SSW,9.2,-,N/A,,Overcast,210,2011-11-07 13:49:00
8:54 AM,54.0,48.0,80,30.24,10.0,SW,10.4,-,N/A,,Overcast,220,2011-11-07 13:54:00
9:54 AM,54.0,48.9,83,30.25,10.0,SW,9.2,-,N/A,,Overcast,220,2011-11-07 14:54:00
10:54 AM,55.0,48.9,80,30.25,10.0,WSW,5.8,-,N/A,,Overcast,240,2011-11-07 15:54:00
11:54 AM,55.9,48.9,77,30.25,10.0,West,5.8,-,N/A,,Overcast,260,2011-11-07 16:54:00
12:01 PM,55.4,48.2,77,30.24,10.0,WSW,4.6,-,N/A,,Overcast,250,2011-11-07 17:01:00
12:54 PM,55.9,48.9,77,30.23,10.0,Calm,Calm,-,N/A,,Overcast,0,2011-11-07 17:54:00
1:50 PM,55.4,48.2,77,30.20,8.0,SE,5.8,-,N/A,,Overcast,140,2011-11-07 18:50:00
1:54 PM,55.9,48.9,77,30.21,9.0,SSE,5.8,-,N/A,,Overcast,160,2011-11-07 18:54:00
2:28 PM,55.4,48.2,77,30.20,8.0,South,4.6,-,N/A,,Overcast,180,2011-11-07 19:28:00
2:54 PM,55.0,50.0,83,30.21,6.0,South,4.6,-,0.00,Rain,Light Rain,180,2011-11-07 19:54:00
3:54 PM,55.0,51.1,86,30.21,4.0,Calm,Calm,-,0.01,Rain,Light Rain,0,2011-11-07 20:54:00
4:11 PM,53.6,51.8,94,30.20,3.0,Calm,Calm,-,0.00,Rain,Light Rain,0,2011-11-07 21:11:00
4:40 PM,53.6,51.8,94,30.20,2.5,Calm,Calm,-,0.01,Rain,Light Rain,0,2011-11-07 21:40:00
4:54 PM,54.0,52.0,93,30.21,3.0,Calm,Calm,-,0.01,,Overcast,0,2011-11-07 21:54:00
5:12 PM,53.6,51.8,94,30.20,2.5,Calm,Calm,-,N/A,,Overcast,0,2011-11-07 22:12:00
5:18 PM,53.6,51.8,94,30.20,2.5,Calm,Calm,-,N/A,,Overcast,0,2011-11-07 22:18:00
5:23 PM,53.6,51.8,94,30.20,3.0,Calm,Calm,-,N/A,,Overcast,0,2011-11-07 22:23:00
5:46 PM,53.6,51.8,94,30.20,4.0,Calm,Calm,-,N/A,,Overcast,0,2011-11-07 22:46:00
5:54 PM,54.0,51.1,90,30.21,4.0,Calm,Calm,-,N/A,,Overcast,0,2011-11-07 22:54:00
6:22 PM,53.6,51.8,94,30.22,4.0,Calm,Calm,-,N/A,,Overcast,0,2011-11-07 23:22:00
6:54 PM,54.0,51.1,90,30.23,3.0,Calm,Calm,-,0.00,Rain,Light Rain,0,2011-11-07 23:54:00
6:59 PM,53.6,51.8,94,30.22,1.8,Calm,Calm,-,0.00,Rain,Light Rain,0,2011-11-07 23:59:00
7:04 PM,53.6,51.8,94,30.22,1.8,Calm,Calm,-,0.01,Rain,Light Rain,0,2011-11-08 00:04:00
7:38 PM,53.6,51.8,94,30.22,2.5,Calm,Calm,-,0.01,,Overcast,0,2011-11-08 00:38:00
7:45 PM,53.6,51.8,94,30.22,2.5,Calm,Calm,-,0.01,,Overcast,0,2011-11-08 00:45:00
7:54 PM,54.0,52.0,93,30.22,2.5,Calm,Calm,-,0.01,,Overcast,0,2011-11-08 00:54:00
8:54 PM,53.6,51.8,94,30.21,2.0,Calm,Calm,-,N/A,,Overcast,0,2011-11-08 01:54:00
9:22 PM,53.6,51.8,94,30.22,2.0,ENE,3.5,-,N/A,,Overcast,70,2011-11-08 02:22:00
9:37 PM,53.6,51.8,94,30.22,2.5,ENE,3.5,-,N/A,,Overcast,70,2011-11-08 02:37:00
9:54 PM,54.0,52.0,93,30.22,2.5,Calm,Calm,-,0.00,Rain,Light Rain,0,2011-11-08 02:54:00
10:23 PM,53.6,51.8,94,30.21,2.5,Calm,Calm,-,0.00,,Overcast,0,2011-11-08 03:23:00
10:35 PM,53.6,51.8,94,30.21,2.5,East,3.5,-,N/A,,Overcast,80,2011-11-08 03:35:00
10:54 PM,54.0,52.0,93,30.21,2.5,Calm,Calm,-,0.02,Rain,Light Rain,0,2011-11-08 03:54:00
11:16 PM,53.6,51.8,94,30.19,1.8,East,3.5,-,0.00,Rain,Light Rain,90,2011-11-08 04:16:00
11:54 PM,53.1,52.0,96,30.19,1.2,East,3.5,-,0.05,Rain,Light Rain,80,2011-11-08 04:54:00